Weather History for EGPH - January, 2014

Change the Weather History Date:

Thursday, January 16, 2014

  Actual Average Record
Temperature  
Mean Temperature 38 °F -  
Max Temperature 44 °F 44 °F 51 °F (2011)
Min Temperature 33 °F 32 °F 19 °F (2012)
Degree Days  
Heating Degree Days 26    
Moisture  
Dew Point 37 °F    
Average Humidity 94    
Maximum Humidity 100    
Minimum Humidity 81    
Precipitation  
Precipitation 0.00 in 0.06 in - ()
Sea Level Pressure  
Sea Level Pressure 29.09 in    
Wind  
Wind Speed 3 mph ()    
Max Wind Speed 13 mph    
Max Gust Speed -    
Visibility 6.1 miles    
Events Fog , Rain    
Averages and records for this station are not official NWS values.
T = Trace of Precipitation, MM = Missing Value Source: Averaged Metar Reports

Daily Weather History Graph

Daily Weather History Graph

Search for Another Location

Airport or City:

Trip Planner

Search our weather history database for the weather conditions in past years. The results will help you decide how hot, cold, wet, or windy it might be!

Date:

Astronomy

Jan. 16, 2014 Rise Set
Actual Time 8:33 AM GMT 4:13 PM GMT
Civil Twilight 7:48 AM GMT 4:57 PM GMT
Nautical Twilight 7:01 AM GMT 5:44 PM GMT
Astronomical Twilight 6:17 AM GMT 6:29 PM GMT
Moon 5:09 PM GMT (1/16) 8:02 AM GMT (1/16)
Length of Visible Light 9h 08m
Length of Day
7h 40m
Full, 100% of the Moon is Illuminated
Jan 16
Full
Jan 24
Last Quarter
Jan 30
New
Feb 6
First Quarter
Feb 14
Full

Hourly Weather History & Observations

Time (GMT) Temp. Windchill Dew Point Humidity Pressure Visibility Wind Dir Wind Speed Gust Speed Precip Events Conditions
12:20 AM 35.6 °F 32.8 °F 35.6 °F 100% 29.15 in 6.2 mi SW 3.5 mph - N/A Fog Shallow Fog
12:50 AM 35.6 °F 32.8 °F 35.6 °F 100% 29.15 in 6.2 mi Variable 3.5 mph - N/A Fog Shallow Fog
1:20 AM 35.6 °F - 35.6 °F 100% 29.15 in 6.2 mi Calm Calm - N/A Fog Shallow Fog
1:50 AM 35.6 °F - 35.6 °F 100% 29.15 in 6.2 mi Calm Calm - N/A Fog Shallow Fog
2:20 AM 35.6 °F - 35.6 °F 100% 29.15 in 6.2 mi Calm Calm - N/A Fog Shallow Fog
2:50 AM 33.8 °F 29.6 °F 33.8 °F 100% 29.12 in 6.2 mi SW 4.6 mph - N/A Fog Patches of Fog
3:20 AM 33.8 °F - 33.8 °F 100% 29.12 in 6.2 mi Calm Calm - N/A Fog Patches of Fog
3:50 AM 33.8 °F 30.8 °F 33.8 °F 100% 29.12 in 6.2 mi ENE 3.5 mph - N/A Fog Patches of Fog
4:20 AM 33.8 °F - 33.8 °F 100% 29.12 in 6.2 mi Calm Calm - N/A Fog Patches of Fog
4:50 AM 33.8 °F - 33.8 °F 100% 29.12 in 6.2 mi Calm Calm - N/A   Drizzle
5:20 AM 33.8 °F - 33.8 °F 100% 29.12 in 6.2 mi Calm Calm - N/A   Scattered Clouds
5:50 AM 33.8 °F - 33.8 °F 100% 29.12 in 6.2 mi Calm Calm - N/A Fog Shallow Fog
6:20 AM 33.8 °F 30.8 °F 33.8 °F 100% 29.12 in 6.2 mi Variable 3.5 mph - N/A Rain Light Rain
6:50 AM 35.6 °F 31.7 °F 35.6 °F 100% 29.12 in 5.0 mi WSW 4.6 mph - N/A Rain Light Rain Showers
7:20 AM 37.4 °F 33.8 °F 37.4 °F 100% 29.12 in 5.0 mi West 4.6 mph - N/A Rain Light Rain
7:50 AM 35.6 °F - 35.6 °F 100% 29.12 in 6.2 mi Calm Calm - N/A   Partly Cloudy
8:20 AM 37.4 °F - 37.4 °F 100% 29.12 in 6.2 mi Variable 2.3 mph - N/A Fog Partly Cloudy
8:50 AM 35.6 °F - 35.6 °F 100% 29.12 in 1.7 mi Variable 2.3 mph - N/A   Mostly Cloudy
9:20 AM 33.8 °F - 33.8 °F 100% 29.12 in 6.2 mi Calm Calm - N/A Fog Shallow Fog
9:50 AM 35.6 °F - 35.6 °F 100% 29.12 in 6.2 mi Calm Calm - N/A   Partly Cloudy
10:20 AM 37.4 °F - 37.4 °F 100% 29.12 in 6.2 mi Calm Calm - N/A   Partly Cloudy
10:50 AM 39.2 °F - 39.2 °F 100% 29.12 in 6.2 mi Variable 2.3 mph - N/A   Partly Cloudy
11:20 AM 42.8 °F - 42.8 °F 100% 29.12 in 6.2 mi Variable 2.3 mph - N/A   Partly Cloudy
11:50 AM 42.8 °F 41.1 °F 39.2 °F 87% 29.09 in 6.2 mi Variable 3.5 mph - N/A   Partly Cloudy
12:20 PM 42.8 °F 40.1 °F 39.2 °F 87% 29.09 in 6.2 mi East 4.6 mph - N/A   Partly Cloudy
12:50 PM 41.0 °F 36.4 °F 39.2 °F 93% 29.09 in 6.2 mi ENE 6.9 mph - N/A   Partly Cloudy
1:20 PM 44.6 °F 41.4 °F 41.0 °F 87% 29.09 in 6.2 mi ENE 5.8 mph - N/A   Partly Cloudy
1:50 PM 44.6 °F 40.7 °F 39.2 °F 81% 29.06 in 6.2 mi East 6.9 mph - N/A   Scattered Clouds
2:20 PM 44.6 °F 40.2 °F 39.2 °F 81% 29.06 in 6.2 mi East 8.1 mph - N/A   Partly Cloudy
2:50 PM 42.8 °F 38.0 °F 37.4 °F 81% 29.06 in 6.2 mi East 8.1 mph - N/A   Partly Cloudy
3:20 PM 42.8 °F 37.5 °F 39.2 °F 87% 29.06 in 6.2 mi East 9.2 mph - N/A   Scattered Clouds
3:50 PM 41.0 °F 35.2 °F 37.4 °F 87% 29.06 in 6.2 mi East 9.2 mph - N/A   Scattered Clouds
4:20 PM 41.0 °F 35.8 °F 37.4 °F 87% 29.06 in 6.2 mi East 8.1 mph - N/A   Scattered Clouds
4:50 PM 41.0 °F 35.2 °F 39.2 °F 93% 29.06 in 6.2 mi ENE 9.2 mph - N/A   Mostly Cloudy
5:20 PM 39.2 °F 34.2 °F 37.4 °F 93% 29.06 in 6.2 mi ENE 6.9 mph - N/A Rain Light Rain
5:50 PM 41.0 °F 35.8 °F 37.4 °F 87% 29.06 in 6.2 mi ENE 8.1 mph - N/A   Mostly Cloudy
6:20 PM 41.0 °F 34.3 °F 37.4 °F 87% 29.06 in 6.2 mi East 11.5 mph - N/A   Scattered Clouds
6:50 PM 41.0 °F 33.9 °F 37.4 °F 87% 29.06 in 6.2 mi ESE 12.7 mph - N/A   Scattered Clouds
7:20 PM 41.0 °F 34.3 °F 37.4 °F 87% 29.06 in 6.2 mi ESE 11.5 mph - N/A   Scattered Clouds
7:50 PM 41.0 °F 35.8 °F 39.2 °F 93% 29.06 in 6.2 mi ENE 8.1 mph - N/A   Mostly Cloudy
8:20 PM 41.0 °F 34.7 °F 39.2 °F 93% 29.06 in 6.2 mi ENE 10.4 mph - N/A   Mostly Cloudy
8:50 PM 41.0 °F 35.8 °F 39.2 °F 93% 29.06 in 6.2 mi ENE 8.1 mph - N/A   Scattered Clouds
9:20 PM 41.0 °F 37.1 °F 39.2 °F 93% 29.06 in 6.2 mi North 5.8 mph - N/A   Mostly Cloudy
9:50 PM 42.8 °F 38.0 °F 39.2 °F 87% 29.06 in 6.2 mi NNE 8.1 mph - N/A   Mostly Cloudy
10:20 PM 42.8 °F 38.6 °F 39.2 °F 87% 29.06 in 6.2 mi NE 6.9 mph - N/A   Mostly Cloudy
10:50 PM 41.0 °F 36.4 °F 37.4 °F 87% 29.06 in 6.2 mi ENE 6.9 mph - N/A   Mostly Cloudy
11:20 PM 39.2 °F 35.0 °F 37.4 °F 93% 29.06 in 6.2 mi NE 5.8 mph - N/A   Scattered Clouds
11:50 PM 41.0 °F 38.0 °F 39.2 °F 93% 29.06 in 6.2 mi ENE 4.6 mph - N/A   Mostly Cloudy